Location: Seattle
(47.6064°N, 122.3308°W)
Time: 14:48:36
(UTC-08:00)

SR - Pass Details

Date: 05 December 2020
Orbit: 575 x 880 km, 66.7° (Epoch: 24 January)

Event Time Altitude Azimuth Distance (km) Brightness Sun altitude
Rises 18:15:22 0° 247° (WSW) 2,850 ? -18.9°
Reaches altitude 10° 18:17:48 10° 259° (W) 1,985 ? -19.3°
Maximum altitude 18:21:40 28° 319° (NW) 1,219 ? -19.9°
Enters shadow 18:24:45 15° 11° (N) 1,796 ? -20.4°
